Location: Newark
(43.4306°N, 0.3089°E)
Time: 02:30:42
(UTC+00:00)

A-11 Canister half - Pass Details

Date: 03 September 2019
Orbit: 1514 x 1686 km, 47.2° (Epoch: 23 October)

Event Time Altitude Azimuth Distance (km) Brightness Sun altitude
Rises 21:44:27 0° 294° (WNW) 4,747 12.5 -30.8°
Reaches altitude 10° 21:47:48 10° 287° (WNW) 3,784 11.7 -31.2°
Maximum altitude 21:56:12 36° 225° (SW) 2,372 9.8 -32.2°
Enters shadow 21:57:31 34° 210° (SSW) 2,424 9.8 -32.3°
